Погода в Малатье

Турция     38°21′06″N   38°18′52″E
темп.,
°C
ветер,
м/с
пор.,
м/с
влажн.,
%
обл.,
%
осадки,
мм/ч
давл.,
гПа
погр.,
м
8 мая, сб
сб800:00+13зюз22485 0.0 101613
03:00+12юз11505 0.0 101611
06:00+12юз11545 0.0 101611
09:00+17сз22352 0.0 1017593
12:00+20ссз232427 0.0 10151108
15:00+22ссз3725100 0.0 10142339
18:00+22з2427100 0.0 10132314
21:00+20ю4433100 0.0 101354
9 мая, вс
вс900:00+19ю4433100 0.0 101251
03:00+17ююв333888 0.0 101024
06:00+17ю3341100 0.0 101036
09:00+20з1332100 0.0 1009507
12:00+22сз6829100 0.0 10092249
15:00+23зсз9112923 0.0 10073024
18:00+13ссз785525 0.0 10141048
21:00+7сз712544 0.0 10201084
10 мая, пн
пн1000:00+6сз483928 0.0 1019821
03:00+4сз34377 0.0 1019245
06:00+3ссз23450 0.0 1021298
09:00+5ссз34373 0.0 1020574
12:00+10ссз34283 0.0 1017820
15:00+14сз56230 0.0 10141273
18:00+13сз67270 0.0 10131257
21:00+10сз23370 0.0 1014104
11 мая, вт
вт1100:00+8сз22430 0.0 101547
03:00+6зсз22480 0.0 101417
06:00+5зсз11500 0.0 101616
09:00+8ссз22270 0.0 1015440
12:00+12ссз32190 0.0 1014795
15:00+16ссз22150 0.0 10121087
18:00+16с21160 0.0 1011577
21:00+13юв11260 0.0 101211
12 мая, ср
ср1200:00+11юз01300 0.0 101210
03:00+10ю11310 0.0 101210
06:00+10ююв11320 0.0 101311
09:00+16ссв13230 0.0 1013887
12:00+20зюз15195 0.0 10122053
15:00+22ююз351914 0.0 10112583
18:00+21ю34210 0.0 10112212
21:00+17ююв33250 0.0 101219